sat.trackr.live / text

‹ back to catalog

LKW-2

NORAD 43080 · 2017-084A

PAYLOAD ACTIVE UNKNOWN

§ Identity

Operator
Country
PRC
Launch date
2017-12-23
Launch site
JSC
Launch vehicle
Mass (kg)
RCS (m²)

External: N2YO · Heavens-Above · Gunter

§ Orbital elements

Epoch: 2026-09-14T22:38:53.644416Z

Period
94.28 min
Inclination
97.1118°
Eccentricity
0.0000429
Mean motion
15.27354707 rev/d
Perigee alt
483.4 km
Apogee alt
484.0 km
Semi-major
6,861.9 km
B*
2.0531e-4
RAAN
293.5732°
Arg perigee
357.9814°
Mean anomaly
2.1424°
Rev number
48,538

§ Raw data

LKW-21 43080U 17084A   26257.94367644  .00005430  00000+0  20531-3 0  99952 43080  97.1118 293.5732 0000429 357.9814   2.1424 15.27354707485389

JSON: /api/v1/satellites/43080 · /tle

For live sub-satellite position, see the globe view (requires WebGL).

§ Visibility from observer

Set your observer location to see the next 7 days of passes ≥ 10°. The values pass through the URL so the page stays shareable.

No JS? Fill the form by hand. The geolocation button needs JavaScript.

§ Radio — SatNOGS DB

ModeDescriptionDownlinkUplink
FMN S-band telemetry 2.213 GHz

1 transmitter · refreshed weekly from db.satnogs.org